Location: Muenchen
(48.1800°N, 11.5800°E)
Time: 15:00:05
(UTC+02:00)

Vanguard 2 Rocket - Visible Passes

Search period start: 24 July 2014 00:00
Search period end: 03 August 2014 00:00
Orbit: 553 x 3337 km, 32.9° (Epoch: 23 July)

Date Brightness Start Highest point End Pass type
(mag) Time Alt. Az. Time Alt. Az. Time Alt. Az.
24 Jul 10.3 04:14:50 10° S 04:24:17 20° SE 04:35:43 10° E visible
25 Jul 10.3 03:21:10 10° SE 03:25:47 12° SE 03:30:53 10° ESE visible
26 Jul 10.0 04:28:42 10° S 04:39:31 26° SE 04:53:31 10° E visible
27 Jul 10.0 03:32:46 10° S 03:40:50 18° SE 03:50:58 10° E visible
28 Jul 10.2 02:40:20 10° SE 02:42:36 11° SE 02:45:03 10° ESE visible
28 Jul 9.9 04:43:35 10° SSW 04:54:57 33° SSE 05:10:32 10° E visible
29 Jul 9.8 03:47:29 12° S 03:56:06 25° SE 04:08:44 10° E visible
30 Jul 9.8 02:52:21 12° SSE 02:57:44 17° SE 03:06:01 10° E visible
30 Jul 9.7 04:59:04 10° SW 05:10:36 38° SSE 05:27:07 10° E visible
31 Jul 9.5 04:03:07 14° SSW 04:11:36 31° SSE 04:25:43 10° E visible
01 Aug 9.5 03:07:58 17° S 03:13:04 23° SE 03:23:51 10° E visible
02 Aug 9.7 02:12:50 14° SE 02:14:58 14° SE 02:21:02 10° ESE visible
02 Aug 9.4 04:18:43 15° SSW 04:27:19 36° SSE 04:42:17 10° E visible
